TimeEDT,TemperatureF,Dew PointF,Humidity,Sea Level PressureIn,VisibilityMPH,Wind Direction,Wind SpeedMPH,Gust SpeedMPH,PrecipitationIn,Events,Conditions,WindDirDegrees,DateUTC
12:53 AM,64.0,37.9,38,30.01,10.0,WNW,10.4,-,N/A,,Overcast,300,2013-03-26 04:53:00
1:53 AM,61.0,41.0,48,30.02,10.0,WNW,11.5,-,N/A,,Mostly Cloudy,300,2013-03-26 05:53:00
2:53 AM,59.0,42.1,53,30.01,10.0,NW,18.4,27.6,N/A,,Mostly Cloudy,320,2013-03-26 06:53:00
3:53 AM,57.9,41.0,53,30.02,10.0,NW,17.3,24.2,N/A,,Overcast,320,2013-03-26 07:53:00
4:53 AM,57.9,39.0,49,30.03,10.0,NNW,17.3,-,N/A,,Overcast,330,2013-03-26 08:53:00
5:53 AM,57.9,39.0,49,30.04,10.0,NNW,17.3,25.3,N/A,,Overcast,340,2013-03-26 09:53:00
6:53 AM,57.9,36.0,44,30.06,10.0,NNW,18.4,-,N/A,,Overcast,340,2013-03-26 10:53:00
7:53 AM,57.0,35.1,44,30.08,10.0,NNW,11.5,-,N/A,,Mostly Cloudy,340,2013-03-26 11:53:00
8:53 AM,57.9,33.1,39,30.10,10.0,NNW,16.1,-,N/A,,Partly Cloudy,340,2013-03-26 12:53:00
9:53 AM,60.1,30.9,33,30.12,10.0,NNW,17.3,-,N/A,,Partly Cloudy,340,2013-03-26 13:53:00
10:53 AM,63.0,32.0,31,30.13,10.0,NNW,16.1,-,N/A,,Clear,340,2013-03-26 14:53:00
11:53 AM,64.9,34.0,32,30.13,10.0,NNW,16.1,24.2,N/A,,Clear,330,2013-03-26 15:53:00
12:53 PM,66.0,30.0,26,30.13,10.0,NW,15.0,23.0,N/A,,Clear,310,2013-03-26 16:53:00
1:53 PM,68.0,24.1,19,30.11,10.0,NNW,18.4,25.3,N/A,,Clear,330,2013-03-26 17:53:00
2:53 PM,68.0,33.1,27,30.10,10.0,NNW,17.3,24.2,N/A,,Partly Cloudy,340,2013-03-26 18:53:00
3:53 PM,68.0,28.0,22,30.09,10.0,NW,20.7,26.5,N/A,,Clear,320,2013-03-26 19:53:00
4:53 PM,66.9,33.1,28,30.09,10.0,NNW,18.4,28.8,N/A,,Clear,330,2013-03-26 20:53:00
5:53 PM,66.0,35.1,32,30.10,10.0,WNW,15.0,23.0,N/A,,Clear,300,2013-03-26 21:53:00
6:53 PM,64.0,36.0,35,30.11,10.0,NW,17.3,-,N/A,,Clear,310,2013-03-26 22:53:00
7:53 PM,62.1,32.0,32,30.14,10.0,NW,13.8,21.9,N/A,,Clear,310,2013-03-26 23:53:00
8:53 PM,59.0,30.0,33,30.17,10.0,WNW,15.0,-,N/A,,Clear,300,2013-03-27 00:53:00
9:53 PM,55.9,30.9,39,30.20,10.0,WNW,10.4,-,N/A,,Clear,300,2013-03-27 01:53:00
10:53 PM,54.0,34.0,47,30.22,10.0,WNW,12.7,-,N/A,,Clear,300,2013-03-27 02:53:00
11:53 PM,51.1,35.1,54,30.22,10.0,WNW,6.9,-,N/A,,Clear,290,2013-03-27 03:53:00